This is the latest recevied weather packets stored in our database for station/object KI6SYE. If no packets are shown the sender has not sent any weather packets the latest 10 day(s).
| Time | Temp. | Humidity | Pressure | Rain* | Wind** | Luminosity | Snow |
|---|---|---|---|---|---|---|---|
| 1777830014 | 16.11° C | 77% | 1014.8 hPa | 0 mm | - | 284 W/m² | - |
| 1777829709 | 16.11° C | 77% | 1014.7 hPa | 0 mm | - | 258 W/m² | - |
| 1777829406 | 16.11° C | 77% | 1014.7 hPa | 0 mm | - | 246 W/m² | - |
| 1777829104 | 16.11° C | 78% | 1014.9 hPa | 0 mm | - | 197 W/m² | - |
| 1777828800 | 16.11° C | 77% | 1014.7 hPa | 0 mm | - | 170 W/m² | - |
| 1777828497 | 16.11° C | 77% | 1014.7 hPa | 0 mm | - | 198 W/m² | - |
| 1777828194 | 16.11° C | 76% | 1014.6 hPa | 0 mm | - | 164 W/m² | - |
| 1777827890 | 16.11° C | 77% | 1014.2 hPa | 0 mm | - | 169 W/m² | - |
| 1777827587 | 16.11° C | 76% | 1014.3 hPa | 0 mm | - | 228 W/m² | - |
| 1777827285 | 16.11° C | 77% | 1014.4 hPa | 0 mm | - | 226 W/m² | - |
| 1777826981 | 16.11° C | 77% | 1014.4 hPa | 0 mm | - | 221 W/m² | - |
| 1777826679 | 16.11° C | 77% | 1014.3 hPa | 0 mm | - | 200 W/m² | - |
| 1777826375 | 16.11° C | 77% | 1014.4 hPa | 0 mm | - | 206 W/m² | - |
| 1777826072 | 16.11° C | 76% | 1014.1 hPa | 0 mm | - | 204 W/m² | - |
| 1777825769 | 16.11° C | 77% | 1014.2 hPa | 0 mm | - | 193 W/m² | - |
| 1777825467 | 16.11° C | 77% | 1014.4 hPa | 0 mm | - | 183 W/m² | - |
| 1777825164 | 16.11° C | 76% | 1014.2 hPa | 0 mm | - | 180 W/m² | - |
| 1777824860 | 16.11° C | 77% | 1014.1 hPa | 0 mm | - | 176 W/m² | - |
| 1777824557 | 16.11° C | 77% | 1014 hPa | 0 mm | - | 181 W/m² | - |
| 1777824253 | 15.56° C | 78% | 1014.1 hPa | 0 mm | - | 168 W/m² | - |
| 1777823949 | 16.11° C | 77% | 1013.9 hPa | 0 mm | - | 162 W/m² | - |
| 1777823646 | 15.56° C | 78% | 1014.1 hPa | 0 mm | - | 137 W/m² | - |
| 1777823343 | 15.56° C | 78% | 1014.2 hPa | 0 mm | - | 128 W/m² | - |
| 1777823041 | 15.56° C | 79% | 1014.2 hPa | 0 mm | - | 93 W/m² | - |
| 1777822739 | 15.56° C | 81% | 1014.3 hPa | 0 mm | - | 56 W/m² | - |
* Rain latest hour (hover to see other rain measurements)
** Current wind speed in m/s (hover to see current wind gust speed)